CAT,Max TemperatureF,Mean TemperatureF,Min TemperatureF,Max Dew PointF,MeanDew PointF,Min DewpointF,Max Humidity, Mean Humidity, Min Humidity, Max Sea Level PressureIn, Mean Sea Level PressureIn, Min Sea Level PressureIn, Max VisibilityMiles, Mean VisibilityMiles, Min VisibilityMiles, Max Wind SpeedMPH, Mean Wind SpeedMPH, Max Gust SpeedMPH,PrecipitationIn, CloudCover, Events, WindDirDegrees
2013-3-1,87,74,62,65,59,48,94,62,20,30.18,30.11,30.04,19,10,6,13,6,,0.00,2,Thunderstorm,109
2013-3-2,80,70,59,64,62,57,94,80,54,30.27,30.19,30.12,19,8,6,13,7,,0.00,4,Thunderstorm,92
2013-3-3,80,70,61,64,62,59,100,75,44,30.30,30.25,30.18,19,8,5,12,6,,0.00,5,Rain,110
2013-3-4,77,70,62,64,63,61,100,86,51,30.30,30.25,30.18,19,8,6,14,6,,0.00,5,Rain-Thunderstorm,121
2013-3-5,78,69,61,66,64,61,100,86,56,30.27,30.23,30.15,19,9,6,8,4,,0.00,6,Rain-Thunderstorm,112
2013-3-6,80,72,64,65,63,61,100,82,53,30.24,30.16,30.09,19,9,6,9,5,,0.00,6,Thunderstorm,41
2013-3-7,81,72,62,64,64,62,100,78,47,30.21,30.13,30.06,19,9,6,13,7,,0.00,4,Rain-Thunderstorm,43
2013-3-8,83,74,64,66,63,59,100,69,40,30.21,30.14,30.06,19,8,6,12,8,,0.00,5,,55
2013-3-9,80,70,60,68,63,61,100,83,54,30.30,30.18,30.09,19,8,2,12,5,,0.00,5,Rain-Thunderstorm,85
2013-3-10,76,68,60,66,63,61,100,87,58,30.27,30.21,30.12,19,7,5,13,8,,0.00,6,Rain-Thunderstorm,105
2013-3-11,73,67,60,63,61,59,100,86,64,30.30,30.25,30.18,19,7,4,13,8,,0.00,6,Rain,146
2013-3-12,70,64,57,59,56,52,94,80,53,30.30,30.23,30.18,19,8,6,12,9,,0.00,6,,149
2013-3-13,77,64,52,57,55,52,100,73,43,30.24,30.19,30.12,19,10,6,9,5,,0.00,3,,151
2013-3-14,76,65,54,59,56,54,100,73,38,30.27,30.21,30.15,19,8,6,8,6,,0.00,4,Rain,141
2013-3-15,73,64,56,61,57,52,88,75,54,30.27,30.20,30.12,19,8,6,10,7,,0.00,5,Rain,75
2013-3-16,79,69,59,64,60,57,100,77,41,30.27,30.20,30.15,19,9,6,10,6,,0.00,5,,15
2013-3-17,85,70,56,65,57,52,100,66,25,30.21,30.15,30.09,19,11,6,7,4,,0.00,2,,86
2013-3-18,84,70,57,65,60,55,100,74,28,30.18,30.11,30.04,19,13,5,12,4,,0.00,5,Rain-Thunderstorm,39
2013-3-19,81,70,60,66,64,61,100,83,46,30.12,30.08,30.01,19,8,6,14,7,,0.00,4,Rain-Thunderstorm,46
2013-3-20,79,70,60,64,62,57,100,77,43,30.24,30.17,30.09,19,8,6,13,6,,0.24,3,,129
2013-3-21,78,66,55,59,56,39,100,67,33,30.30,30.23,30.15,19,8,6,15,8,,0.00,4,,108
2013-3-22,79,66,54,59,56,52,100,69,37,30.21,30.16,30.09,19,10,6,7,5,,0.00,2,,116
2013-3-23,78,66,55,59,56,52,100,69,35,30.18,30.13,30.09,19,14,6,14,7,,0.00,3,,66
2013-3-24,81,66,52,61,56,54,100,68,31,30.21,30.15,30.09,19,13,6,9,6,,0.00,2,,61
2013-3-25,80,70,59,63,57,52,100,68,29,30.27,30.19,30.12,19,10,6,10,7,,0.00,5,,96
2013-3-26,81,68,55,58,55,50,100,62,27,30.27,30.21,30.15,19,13,6,13,7,,0.00,1,,121
2013-3-27,78,69,60,61,60,59,94,76,47,30.27,30.24,30.18,19,9,6,17,9,,0.00,5,Thunderstorm,136
2013-3-28,81,68,55,65,55,50,100,67,27,30.30,30.25,30.18,19,19,19,8,5,,0.00,,,115
2013-3-29,79,67,55,61,55,50,100,65,29,30.33,30.25,30.18,19,10,6,9,6,,0.00,2,Rain,104
2013-3-30,80,67,54,57,55,52,97,66,32,30.27,30.21,30.15,19,12,6,15,6,,0.00,2,,113
2013-3-31,80,67,54,64,58,54,100,70,35,30.30,30.26,30.18,19,10,6,13,7,,0.00,4,Rain,88